Grand Junction, CO

7:45 AM MDT on October 17, 2019 (GMT -0600)
Walker

Weather History for KGJT - March, 2019

Change the Weather History Date:

Friday, March 22, 2019

  Actual Average Record
Temperature  
Mean Temperature 41 °F 46 °F  
Max Temperature 48 °F 58 °F 79 °F (2004)
Min Temperature 34 °F 33 °F 13 °F (1923)
Degree Days  
Heating Degree Days 24 20  
Month to date heating degree days 496 487  
Since 1 July heating degree days 4951 4866  
Cooling Degree Days 0 0  
Month to date cooling degree days 0 0  
Year to date cooling degree days 0 0  
Moisture  
Dew Point 35 °F    
Average Humidity 79    
Maximum Humidity 92    
Minimum Humidity 65    
Precipitation  
Precipitation 0.22 in 0.03 in 0.44 in (1980)
Month to date precipitation 2.13 0.61  
Year to date precipitation 3.57 1.73  
Snow  
Snow 0.00 in 0.10 in 2.50 in (1917)
Month to date snowfall 0.0 1.9  
Since 1 July snowfall 17.4 17.4  
Snow Depth 0.00 in    
Sea Level Pressure  
Sea Level Pressure 30.04 in    
Wind  
Wind Speed 7 mph (East)    
Max Wind Speed 17 mph    
Max Gust Speed 20 mph    
Visibility 9 miles    
Events Rain    
T = Trace of Precipitation, MM = Missing Value Source: NWS Daily Summary

Daily Weather History Graph

Daily Weather History Graph

Search for Another Location

Airport or City:

Astronomy

Mar. 22, 2019 Rise Set
Actual Time 7:14 AM MDT 7:27 PM MDT
Civil Twilight 6:47 AM MDT 7:54 PM MDT
Nautical Twilight 6:16 AM MDT 8:25 PM MDT
Astronomical Twilight 5:44 AM MDT 8:57 PM MDT
Moon 9:39 PM MDT (3/22) 8:32 AM MDT (3/22)
Length of Visible Light 13h 06m
Length of Day
12h 13m
Waning Gibbous, 96% of the Moon is Illuminated
Mar 22
Waning Gibbous
Mar 27
Last Quarter
Apr 5
New
Apr 12
First Quarter
Apr 19
Full

Hourly Weather History & Observations

Time (MDT) Temp. Windchill Dew Point Humidity Pressure Visibility Wind Dir Wind Speed Gust Speed Precip Events Conditions
12:53 AM 36.0 °F 32.1 °F 32.0 °F 86% 30.02 in 10.0 mi East 4.6 mph - N/A   Mostly Cloudy
1:53 AM 36.0 °F 31.1 °F 33.1 °F 89% 29.99 in 10.0 mi ESE 5.8 mph - N/A   Mostly Cloudy
2:53 AM 36.0 °F 33.3 °F 33.1 °F 89% 30.00 in 10.0 mi South 3.5 mph - N/A   Mostly Cloudy
3:53 AM 36.0 °F 32.1 °F 33.1 °F 89% 30.01 in 10.0 mi East 4.6 mph - N/A   Overcast
4:53 AM 37.0 °F 28.1 °F 34.0 °F 89% 30.01 in 10.0 mi East 15.0 mph - 0.00 in Rain Light Rain
5:53 AM 37.9 °F 30.0 °F 34.0 °F 86% 29.99 in 10.0 mi ESE 12.7 mph - 0.00 in   Overcast
6:53 AM 37.0 °F 29.8 °F 35.1 °F 93% 30.00 in 10.0 mi ESE 10.4 mph - N/A   Overcast
7:53 AM 37.9 °F 32.7 °F 35.1 °F 89% 30.02 in 10.0 mi SSE 6.9 mph - N/A   Overcast
8:53 AM 37.9 °F 30.5 °F 35.1 °F 89% 30.04 in 10.0 mi SE 11.5 mph - 0.00 in Rain Light Rain
9:17 AM 37.9 °F 32.7 °F 36.0 °F 93% 30.05 in 10.0 mi SE 6.9 mph - 0.00 in Rain Light Rain
9:53 AM 37.9 °F 34.4 °F 36.0 °F 93% 30.04 in 7.0 mi South 4.6 mph - 0.02 in Rain Light Rain
10:38 AM 39.0 °F - 35.1 °F 86% 30.06 in 10.0 mi Calm Calm - 0.01 in Rain Light Rain
10:53 AM 39.0 °F 36.8 °F 35.1 °F 86% 30.05 in 10.0 mi North 3.5 mph - 0.01 in Rain Light Rain
11:53 AM 39.9 °F - 34.0 °F 79% 30.05 in 10.0 mi Calm Calm - 0.00 in   Overcast
12:03 PM 39.9 °F 32.9 °F 35.1 °F 83% 30.06 in 8.0 mi West 11.5 mph 17.3 mph 0.00 in Rain Light Rain
12:18 PM 37.0 °F 33.3 °F 34.0 °F 89% 30.07 in 2.5 mi WNW 4.6 mph - 0.06 in Rain Rain
12:29 PM 37.0 °F 34.5 °F 34.0 °F 89% 30.07 in 4.0 mi NW 3.5 mph - 0.08 in Rain Light Rain
12:53 PM 37.0 °F 34.5 °F 35.1 °F 93% 30.07 in 10.0 mi North 3.5 mph - 0.10 in Rain Light Rain
1:04 PM 37.9 °F 35.5 °F 35.1 °F 89% 30.07 in 10.0 mi NW 3.5 mph - 0.00 in Rain Light Rain
1:27 PM 39.0 °F 34.0 °F 36.0 °F 89% 30.06 in 10.0 mi ENE 6.9 mph - 0.00 in   Overcast
1:41 PM 39.9 °F 34.5 °F 36.0 °F 86% 30.05 in 10.0 mi NE 8.1 mph - 0.00 in   Overcast
1:53 PM 42.1 °F 37.7 °F 37.0 °F 82% 30.03 in 10.0 mi NNE 6.9 mph - 0.00 in   Overcast
2:53 PM 45.0 °F - 35.1 °F 68% 30.00 in 10.0 mi Calm Calm - N/A   Partly Cloudy
3:53 PM 46.0 °F - 36.0 °F 68% 30.00 in 10.0 mi North - - N/A   Mostly Cloudy
4:10 PM 36.0 °F 27.1 °F 33.1 °F 89% 30.05 in 2.5 mi WNW 13.8 mph - 0.03 in Rain Heavy Rain
4:19 PM 34.0 °F 24.6 °F 32.0 °F 92% 30.05 in 1.8 mi WNW 13.8 mph - 0.09 in Rain Heavy Rain
4:22 PM 35.1 °F 25.9 °F 33.1 °F 92% 30.05 in 2.5 mi WNW 13.8 mph - 0.09 in Rain Light Rain
4:29 PM 36.0 °F 27.1 °F 34.0 °F 93% 30.04 in 10.0 mi WNW 13.8 mph - 0.09 in Rain Light Rain
4:42 PM 39.0 °F 31.0 °F 36.0 °F 89% 30.04 in 10.0 mi WNW 13.8 mph - 0.09 in Rain Light Rain
4:53 PM 39.9 °F 33.9 °F 36.0 °F 86% 30.03 in 10.0 mi NNE 9.2 mph - 0.09 in Rain Light Rain
5:53 PM 45.0 °F 42.6 °F 36.0 °F 71% 30.01 in 10.0 mi West 4.6 mph - 0.00 in   Clear
6:53 PM 42.1 °F 36.6 °F 36.0 °F 79% 30.03 in 10.0 mi South 9.2 mph - N/A   Clear
7:53 PM 41.0 °F 39.0 °F 35.1 °F 79% 30.04 in 10.0 mi SSE 3.5 mph - N/A   Clear
8:53 PM 37.9 °F 32.7 °F 35.1 °F 89% 30.07 in 10.0 mi ENE 6.9 mph - N/A   Mostly Cloudy
9:53 PM 37.0 °F 33.3 °F 34.0 °F 89% 30.08 in 10.0 mi East 4.6 mph - N/A   Scattered Clouds
10:53 PM 36.0 °F 29.0 °F 34.0 °F 93% 30.09 in 10.0 mi East 9.2 mph - N/A   Partly Cloudy
11:53 PM 37.9 °F 30.5 °F 34.0 °F 86% 30.07 in 10.0 mi SE 11.5 mph - N/A   Mostly Cloudy